User: anonymous   Login
Location: Dodgeville, WI 53533, USA
(43.0344°N, 90.0900°W)
Time: 13:23:48
(UTC-05:00)
Language:

PicSat - Orbit

View from above orbital plane
View from above orbital plane
View from above satellite
View from above satellite

Ground track
Ground track

The orbit data is extracted from the following two-line orbital elements,

1 43131U 18004W   21105.67992303  .00004020  00000-0  15451-3 0  9998
2 43131  97.4139 182.0103 0010017  70.6799 289.5523 15.26959601181186
Epoch (UTC): 15 April 2021 16:19:05
Eccentricity: 0.0010017
inclination: 97.4139°
perigee height: 478 km
apogee height: 492 km
right ascension of ascending node: 182.0103°
argument of perigee: 70.6799°
revolutions per day: 15.26959601
mean anomaly at epoch: 289.5523°
orbit number at epoch: 18118

The dashed part of the orbit path shows where the satellite is in the earth's shadow,  

DLR